OBJECT XX, 66911

Orbit data source: Space-Track

You're viewing an Uncataloged Satellite

Recently launched and/or uncataloged satellites may have evolving metadata. Metadata may include but not limited to: Owner, Maufacturer, Bus, Motor, and Mission.

OBJECT XX, 66911 is an American satellite in LEO that was delivered to and deployed from the ISS. Unknown objects in Earth's orbit typically refer to objects detected orbiting the Earth but have not yet been identified or cataloged. These objects could be anything from previously untracked satellites, spent rocket stages, debris from satellite collisions, or even natural meteoroids temporarily captured by Earth's gravity.

Not visible in the next 10 days
Identifier
66911, 1998-067XX
Orbit
LEO
Country
Flag of USUS
Related business
None
Manufacturer
Unknown
Mission
Operational Amateur Technology
Bus & Motor
Unknown
Mass
Unknown
Launch date (UTC)
1998-11-20 (27 years ago)
Launch vehicle
FALCON 9
Launch site
Tyuratam Missile And Space Complex (TTMTR)
Object type
Unknown
Shape & HBR
Box, 0.1 m
Radar Cross Section
0.015 m²

Expand to show TLE details & history
Last TLE update: 9 hours ago

TLE from 9 hours ago
0 OBJECT XX
1 66911U 98067XX  26100.47401911  .03277748  11857-4  16574-2 0  9998
2 66911  51.6062 257.2206 0014018 301.0012  58.9628 16.19642199 20244
Epoch: 2026-04-10T11:22Z
TLE epoch observation values (Epoch: 2026-04-10T11:22:35.251Z)
Latitude
-0.00004°
Longitude
-112.13347°
Altitude
216.524 km
Speed
7.781 km/s
True Right ascension
17h 08m 52s
True Declination
0° 00' 00"
Sunlit
Object was in full shadow at epoch
Visualization orbit readout
Latitude
Unknown
Longitude
Unknown
Altitude
Unknown
Speed
Unknown
Apparent Right ascension
Unknown
Apparent Declination
Unknown
Sunlit
N/A
Visualization observer readout
Local Sidereal Time
03:03:54
Azimuth
Unknown
Elevation
Unknown
Doppler factor
Unknown
Orbital elements
Apogee altitude
230.303 km
Perigee altitude
211.801 km
Semi-major axis
6,599.189 km
Eccentricity
0.0014
Inclination
51.6062°
RAAN
257.2206°
Arg. of periapsis
301.0012°
True anomaly
59.10056°
Mean anomaly
58.9628°
Eccentric anomaly
59.03167°
Mean motion
4.04862 °/min
Orbital period
88.92 mins
BSTAR
0.0016574
Loading maneuver chart data...
Computing Atmospheric mass density...
Loading historical data...
Loading historical data...
Loading historical data...
Loading historical data...
Loading historical data...
Loading historical data...
Loading historical data...

Documentation

Showing up to 5 results
|